Location: Croisilles
(50.1998°N, 2.8793°E)
Time: 12:57:12
(UTC+00:00)

Cosmos 44 - Pass Details

Date: 21 January 2021
Orbit: 572 x 789 km, 65.1° (Epoch: 26 February)

Event Time Altitude Azimuth Distance (km) Brightness Sun altitude
Rises 18:10:53 0° 183° (S) 2,960 6.7 -16.7°
Reaches altitude 10° 18:13:23 10° 171° (S) 2,091 5.8 -17.1°
Maximum altitude 18:17:23 27° 114° (ESE) 1,319 4.3 -17.8°
Enters shadow 18:17:23 27° 114° (ESE) 1,319 4.3 -17.8°
